Location: Buch
(49.7331°N, 12.1098°E)
Time: 08:26:12
(UTC+00:00)

H-2A R/B - Pass Details

Date: 12 May 2021
Orbit: 573 x 598 km, 98.2° (Epoch: 13 June)

Event Time Altitude Azimuth Distance (km) Brightness Sun altitude
Rises 21:16:23 0° 13° (NNE) 2,848 7.8 -17.6°
Reaches altitude 10° 21:18:34 10° 13° (NNE) 1,938 6.8 -17.7°
Maximum altitude 21:22:46 85° 284° (WNW) 600 3.4 -18.0°
Enters shadow 21:24:48 30° 199° (SSW) 1,073 4.4 -18.2°
